Date,TemperatureHighF,TemperatureAvgF,TemperatureLowF,DewpointHighF,DewpointAvgF,DewpointLowF,HumidityHigh,HumidityAvg,HumidityLow,PressureMaxIn,PressureMinIn,WindSpeedMaxMPH,WindSpeedAvgMPH,GustSpeedMaxMPH,PrecipitationSumIn
2013-1-1,17.8,2.7,-16.2,15.4,-1.1,-20.8,95,84,78,30.16,29.82,8,2,8,0.00
2013-1-2,23.5,17.5,9.4,21.2,14.7,6.2,91,88,86,30.08,29.77,9,3,9,0.00
2013-1-3,20.8,11.0,-1.3,16.0,7.2,-5.0,97,84,80,30.16,29.82,12,4,12,0.00
2013-1-4,28.7,17.1,1.8,19.2,11.4,-2.4,92,78,67,30.04,29.84,9,1,9,0.00
2013-1-5,26.5,10.4,-1.4,20.3,6.2,-5.3,96,83,74,30.01,29.85,6,0,6,0.00
2013-1-6,20.3,11.4,-1.1,15.1,7.0,-5.3,92,82,74,30.12,29.73,9,1,10,0.00
2013-1-7,35.0,23.6,13.3,26.3,18.5,10.1,92,81,69,29.84,29.61,13,4,13,0.01
2013-1-8,31.0,20.4,5.6,27.2,17.0,2.3,93,87,79,29.83,29.59,12,2,12,0.00
2013-1-9,30.2,24.6,21.2,26.1,19.2,15.8,89,80,72,30.19,29.64,17,5,17,0.00
2013-1-10,47.9,34.5,21.5,30.7,24.9,16.3,92,70,44,30.06,29.57,20,6,20,0.45
2013-1-11,34.2,31.5,20.6,32.7,29.8,18.3,94,93,91,29.57,29.32,8,0,8,0.21
2013-1-12,20.4,5.6,-6.0,18.2,1.7,-10.1,92,84,79,30.06,29.33,9,3,9,0.00
2013-1-13,9.4,-1.6,-9.4,3.6,-6.1,-13.6,92,81,72,30.13,30.00,6,1,6,0.00
2013-1-14,12.3,4.1,-1.1,5.4,-0.8,-5.0,91,80,70,30.23,30.11,9,2,9,0.00
2013-1-15,24.0,13.6,1.0,17.1,7.7,-2.7,94,77,63,30.11,29.47,12,5,12,0.00
2013-1-16,26.6,10.6,-5.6,24.6,3.8,-12.8,92,74,54,30.20,29.44,12,4,12,0.00
2013-1-17,8.1,0.3,-6.7,-0.3,-5.9,-13.0,89,75,65,30.29,30.12,8,1,8,0.00
2013-1-18,19.7,13.3,3.2,15.7,9.5,-1.9,87,84,79,30.12,29.65,7,1,7,0.00
2013-1-19,25.5,8.9,-10.0,23.5,4.8,-14.6,92,83,78,30.19,29.56,16,5,16,0.00
2013-1-20,0.3,-10.2,-18.5,-5.9,-15.5,-23.5,83,77,67,30.25,30.18,8,2,8,0.00
2013-1-21,-9.0,-17.1,-22.4,-17.5,-23.1,-28.1,89,73,64,30.21,30.15,10,2,10,0.00
2013-1-22,0.0,-14.4,-28.1,-9.1,-20.6,-33.7,92,73,63,30.24,30.08,7,1,7,0.00
2013-1-23,1.0,-8.3,-23.4,-2.4,-14.6,-29.3,86,73,59,30.58,30.02,10,3,10,0.00
2013-1-24,3.6,-9.1,-24.3,-1.6,-15.1,-30.1,82,74,63,30.57,29.94,12,3,12,0.00
2013-1-25,8.3,2.1,-13.1,4.7,-3.5,-18.1,85,77,66,30.25,29.78,10,3,10,0.00
2013-1-26,14.6,2.2,-15.8,5.0,-3.8,-20.8,84,76,64,30.25,30.00,8,1,8,0.00
2013-1-27,28.3,17.8,3.8,22.4,11.5,-0.6,87,77,65,30.02,29.76,5,0,5,0.01
2013-1-28,33.7,29.6,26.8,30.5,26.5,22.0,92,88,82,29.78,29.64,6,0,6,0.03
2013-1-29,28.1,22.6,11.1,26.0,19.7,7.2,92,89,83,29.83,29.56,9,0,9,0.00
2013-1-30,11.2,5.4,-1.6,7.3,1.0,-5.8,94,82,75,29.82,29.70,8,3,9,0.00
2013-1-31,-1.6,-9.0,-23.0,-4.0,-14.6,-28.7,92,76,68,30.16,29.75,12,4,12,0.00